Wetterdaten: Donnerstag, 19.11.2015
Datum Zeit Temp. A. Feuchte A. Luftdruck Regen Wind Richtung Richtung Sonnenschein ET UV Solar Taupunkt Windchill Windben Empfang
19.11.2015 00:00 10,4 C 70 % 1018,5 hPa 0,0 l/m 2,7 km/h (1 Bft) W-SW 242 0 min 0,000 mm 0,0 UV-I 0 W/m 5,2 C 10,4 C 6,4 km/h (2 Bft) 100,00 %
19.11.2015 00:05 10,3 C 70 % 1018,5 hPa 0,0 l/m 2,6 km/h (1 Bft) SW 227 0 min 0,000 mm 0,0 UV-I 0 W/m 5,1 C 10,3 C 8,0 km/h (2 Bft) 99,13 %
19.11.2015 00:10 10,2 C 71 % 1018,5 hPa 0,0 l/m 2,2 km/h (1 Bft) W-SW 240 0 min 0,000 mm 0,0 UV-I 0 W/m 5,2 C 10,2 C 4,8 km/h (1 Bft) 99,11 %
19.11.2015 00:15 10,2 C 71 % 1018,5 hPa 0,0 l/m 2,4 km/h (1 Bft) W-SW 250 0 min 0,000 mm 0,0 UV-I 0 W/m 5,2 C 10,2 C 4,8 km/h (1 Bft) 100,00 %
19.11.2015 00:20 10,1 C 71 % 1018,7 hPa 0,0 l/m 2,4 km/h (1 Bft) W 260 0 min 0,000 mm 0,0 UV-I 0 W/m 5,1 C 10,1 C 4,8 km/h (1 Bft) 99,19 %
19.11.2015 00:25 10,1 C 71 % 1018,6 hPa 0,0 l/m 2,9 km/h (1 Bft) SW 227 0 min 0,000 mm 0,0 UV-I 0 W/m 5,1 C 10,1 C 4,8 km/h (1 Bft) 99,12 %
19.11.2015 00:30 9,8 C 72 % 1018,7 hPa 0,0 l/m 2,1 km/h (1 Bft) SW 214 0 min 0,000 mm 0,0 UV-I 0 W/m 5,0 C 9,8 C 4,8 km/h (1 Bft) 99,11 %
19.11.2015 00:35 9,8 C 72 % 1018,5 hPa 0,0 l/m 4,5 km/h (1 Bft) S-SW 209 0 min 0,000 mm 0,0 UV-I 0 W/m 5,0 C 9,8 C 12,9 km/h (3 Bft) 99,19 %
19.11.2015 00:40 9,9 C 72 % 1018,5 hPa 0,0 l/m 8,2 km/h (2 Bft) SW 215 0 min 0,000 mm 0,0 UV-I 0 W/m 5,1 C 8,6 C 12,9 km/h (3 Bft) 99,15 %
19.11.2015 00:45 9,9 C 72 % 1018,4 hPa 0,0 l/m 8,6 km/h (2 Bft) SW 224 0 min 0,000 mm 0,0 UV-I 0 W/m 5,1 C 8,3 C 12,9 km/h (3 Bft) 98,21 %
19.11.2015 00:50 9,8 C 72 % 1018,4 hPa 0,0 l/m 5,8 km/h (2 Bft) SW 215 0 min 0,000 mm 0,0 UV-I 0 W/m 5,0 C 9,8 C 11,3 km/h (2 Bft) 100,00 %
19.11.2015 00:55 9,9 C 71 % 1018,5 hPa 0,0 l/m 5,1 km/h (1 Bft) W-SW 248 0 min 0,000 mm 0,0 UV-I 0 W/m 4,9 C 9,9 C 12,9 km/h (3 Bft) 99,11 %
19.11.2015 01:00 9,9 C 71 % 1018,4 hPa 0,0 l/m 4,6 km/h (1 Bft) SW 224 0 min 0,025 mm 0,0 UV-I 0 W/m 4,9 C 9,9 C 9,7 km/h (2 Bft) 99,19 %
19.11.2015 01:05 10,1 C 70 % 1018,5 hPa 0,0 l/m 5,6 km/h (1 Bft) W 266 0 min 0,000 mm 0,0 UV-I 0 W/m 4,9 C 10,1 C 11,3 km/h (2 Bft) 100,00 %
19.11.2015 01:10 10,2 C 70 % 1018,4 hPa 0,0 l/m 5,3 km/h (1 Bft) SW 225 0 min 0,000 mm 0,0 UV-I 0 W/m 5,0 C 10,2 C 11,3 km/h (2 Bft) 99,13 %
19.11.2015 01:15 10,2 C 70 % 1018,5 hPa 0,0 l/m 5,0 km/h (1 Bft) SW 221 0 min 0,000 mm 0,0 UV-I 0 W/m 5,0 C 10,2 C 11,3 km/h (2 Bft) 100,00 %
19.11.2015 01:20 10,3 C 70 % 1018,5 hPa 0,0 l/m 8,6 km/h (2 Bft) SW 218 0 min 0,000 mm 0,0 UV-I 0 W/m 5,1 C 8,8 C 17,7 km/h (3 Bft) 99,15 %
19.11.2015 01:25 10,2 C 70 % 1018,5 hPa 0,0 l/m 8,1 km/h (2 Bft) SW 229 0 min 0,000 mm 0,0 UV-I 0 W/m 5,0 C 9,0 C 17,7 km/h (3 Bft) 99,11 %
19.11.2015 01:30 10,1 C 70 % 1018,5 hPa 0,0 l/m 8,4 km/h (2 Bft) S 183 0 min 0,000 mm 0,0 UV-I 0 W/m 4,9 C 8,7 C 17,7 km/h (3 Bft) 97,62 %
19.11.2015 01:35 10,1 C 70 % 1018,5 hPa 0,0 l/m 6,8 km/h (2 Bft) W-NW 284 0 min 0,000 mm 0,0 UV-I 0 W/m 4,9 C 9,8 C 12,9 km/h (3 Bft) 100,00 %
19.11.2015 01:40 10,1 C 70 % 1018,5 hPa 0,0 l/m 6,3 km/h (2 Bft) W-NW 297 0 min 0,000 mm 0,0 UV-I 0 W/m 4,9 C 10,1 C 11,3 km/h (2 Bft) 99,11 %
19.11.2015 01:45 10,1 C 70 % 1018,5 hPa 0,0 l/m 7,4 km/h (2 Bft) SW 225 0 min 0,000 mm 0,0 UV-I 0 W/m 4,9 C 9,4 C 14,5 km/h (3 Bft) 98,28 %
19.11.2015 01:50 10,3 C 69 % 1018,5 hPa 0,0 l/m 9,3 km/h (2 Bft) W-SW 238 0 min 0,000 mm 0,0 UV-I 0 W/m 4,9 C 8,3 C 17,7 km/h (3 Bft) 98,37 %
19.11.2015 01:55 10,5 C 68 % 1018,4 hPa 0,0 l/m 12,1 km/h (2 Bft) SW 217 0 min 0,000 mm 0,0 UV-I 0 W/m 4,8 C 7,0 C 24,1 km/h (4 Bft) 100,00 %
19.11.2015 02:00 10,6 C 67 % 1018,4 hPa 0,0 l/m 11,1 km/h (2 Bft) W-SW 242 0 min 0,026 mm 0,0 UV-I 0 W/m 4,7 C 7,7 C 19,3 km/h (3 Bft) 99,15 %
19.11.2015 02:05 10,6 C 67 % 1018,6 hPa 0,0 l/m 8,2 km/h (2 Bft) SW 224 0 min 0,000 mm 0,0 UV-I 0 W/m 4,7 C 9,4 C 16,1 km/h (3 Bft) 97,58 %
19.11.2015 02:10 10,4 C 68 % 1018,6 hPa 0,0 l/m 8,1 km/h (2 Bft) S-SW 200 0 min 0,000 mm 0,0 UV-I 0 W/m 4,8 C 9,2 C 17,7 km/h (3 Bft) 99,08 %
19.11.2015 02:15 10,3 C 68 % 1018,7 hPa 0,0 l/m 10,3 km/h (2 Bft) W-SW 245 0 min 0,000 mm 0,0 UV-I 0 W/m 4,7 C 7,8 C 19,3 km/h (3 Bft) 100,00 %
19.11.2015 02:20 10,1 C 69 % 1018,7 hPa 0,0 l/m 6,6 km/h (2 Bft) SW 229 0 min 0,000 mm 0,0 UV-I 0 W/m 4,7 C 10,0 C 12,9 km/h (3 Bft) 98,26 %
19.11.2015 02:25 9,9 C 69 % 1018,7 hPa 0,0 l/m 6,7 km/h (2 Bft) S 189 0 min 0,000 mm 0,0 UV-I 0 W/m 4,5 C 9,7 C 12,9 km/h (3 Bft) 100,00 %
19.11.2015 02:30 10,2 C 67 % 1018,6 hPa 0,0 l/m 8,5 km/h (2 Bft) W-SW 246 0 min 0,000 mm 0,0 UV-I 0 W/m 4,4 C 8,7 C 16,1 km/h (3 Bft) 100,00 %
19.11.2015 02:35 10,5 C 66 % 1018,7 hPa 0,0 l/m 9,0 km/h (2 Bft) S-SW 205 0 min 0,000 mm 0,0 UV-I 0 W/m 4,4 C 8,7 C 20,9 km/h (4 Bft) 100,00 %
19.11.2015 02:40 10,8 C 64 % 1018,7 hPa 0,0 l/m 9,3 km/h (2 Bft) W 270 0 min 0,000 mm 0,0 UV-I 0 W/m 4,3 C 8,9 C 16,1 km/h (3 Bft) 99,12 %
19.11.2015 02:45 10,9 C 63 % 1018,8 hPa 0,0 l/m 10,5 km/h (2 Bft) W-SW 240 0 min 0,000 mm 0,0 UV-I 0 W/m 4,1 C 8,3 C 20,9 km/h (4 Bft) 99,17 %
19.11.2015 02:50 10,8 C 63 % 1018,6 hPa 0,0 l/m 10,2 km/h (2 Bft) SW 224 0 min 0,000 mm 0,0 UV-I 0 W/m 4,0 C 8,4 C 19,3 km/h (3 Bft) 100,00 %
19.11.2015 02:55 10,8 C 63 % 1018,7 hPa 0,0 l/m 10,6 km/h (2 Bft) S-SW 207 0 min 0,000 mm 0,0 UV-I 0 W/m 4,0 C 8,2 C 19,3 km/h (3 Bft) 98,37 %
19.11.2015 03:00 10,8 C 63 % 1018,6 hPa 0,0 l/m 12,8 km/h (3 Bft) S 180 0 min 0,051 mm 0,0 UV-I 0 W/m 4,0 C 7,1 C 25,7 km/h (4 Bft) 99,11 %
19.11.2015 03:05 10,9 C 62 % 1018,7 hPa 0,0 l/m 9,2 km/h (2 Bft) SW 220 0 min 0,000 mm 0,0 UV-I 0 W/m 3,9 C 9,0 C 19,3 km/h (3 Bft) 100,00 %
19.11.2015 03:10 10,9 C 61 % 1018,7 hPa 0,0 l/m 9,7 km/h (2 Bft) S-SW 205 0 min 0,000 mm 0,0 UV-I 0 W/m 3,7 C 8,8 C 22,5 km/h (4 Bft) 96,33 %
19.11.2015 03:15 11,1 C 60 % 1018,6 hPa 0,0 l/m 12,2 km/h (2 Bft) W 261 0 min 0,000 mm 0,0 UV-I 0 W/m 3,6 C 7,7 C 17,7 km/h (3 Bft) 98,39 %
19.11.2015 03:20 11,3 C 59 % 1018,6 hPa 0,0 l/m 12,9 km/h (3 Bft) SW 230 0 min 0,000 mm 0,0 UV-I 0 W/m 3,6 C 7,6 C 25,7 km/h (4 Bft) 97,22 %
19.11.2015 03:25 11,3 C 58 % 1018,6 hPa 0,0 l/m 12,4 km/h (3 Bft) S-SW 210 0 min 0,000 mm 0,0 UV-I 0 W/m 3,3 C 7,8 C 24,1 km/h (4 Bft) 99,21 %
19.11.2015 03:30 11,5 C 57 % 1018,5 hPa 0,0 l/m 12,6 km/h (3 Bft) S-SW 213 0 min 0,000 mm 0,0 UV-I 0 W/m 3,3 C 8,0 C 20,9 km/h (4 Bft) 100,00 %
19.11.2015 03:35 11,7 C 56 % 1018,5 hPa 0,0 l/m 14,9 km/h (3 Bft) SW 229 0 min 0,000 mm 0,0 UV-I 0 W/m 3,2 C 7,2 C 24,1 km/h (4 Bft) 98,41 %
19.11.2015 03:40 11,8 C 55 % 1018,3 hPa 0,0 l/m 12,0 km/h (2 Bft) S-SW 192 0 min 0,000 mm 0,0 UV-I 0 W/m 3,1 C 8,6 C 17,7 km/h (3 Bft) 100,00 %
19.11.2015 03:45 11,9 C 55 % 1018,3 hPa 0,0 l/m 11,7 km/h (2 Bft) S-SW 211 0 min 0,000 mm 0,0 UV-I 0 W/m 3,2 C 8,8 C 22,5 km/h (4 Bft) 100,00 %
19.11.2015 03:50 12,0 C 54 % 1018,3 hPa 0,0 l/m 12,7 km/h (3 Bft) W 265 0 min 0,000 mm 0,0 UV-I 0 W/m 3,0 C 8,5 C 20,9 km/h (4 Bft) 99,19 %
19.11.2015 03:55 12,1 C 55 % 1018,4 hPa 0,0 l/m 11,8 km/h (2 Bft) SW 220 0 min 0,000 mm 0,0 UV-I 0 W/m 3,3 C 9,0 C 19,3 km/h (3 Bft) 100,00 %
19.11.2015 04:00 12,2 C 54 % 1018,3 hPa 0,0 l/m 15,0 km/h (3 Bft) W-SW 248 0 min 0,050 mm 0,0 UV-I 0 W/m 3,2 C 7,8 C 25,7 km/h (4 Bft) 99,19 %
19.11.2015 04:05 12,2 C 55 % 1018,3 hPa 0,0 l/m 11,6 km/h (2 Bft) SW 226 0 min 0,000 mm 0,0 UV-I 0 W/m 3,4 C 9,2 C 24,1 km/h (4 Bft) 100,00 %
19.11.2015 04:10 12,0 C 56 % 1018,4 hPa 0,0 l/m 8,1 km/h (2 Bft) SW 234 0 min 0,000 mm 0,0 UV-I 0 W/m 3,5 C 10,9 C 20,9 km/h (4 Bft) 99,15 %
19.11.2015 04:15 11,8 C 57 % 1018,5 hPa 0,0 l/m 8,6 km/h (2 Bft) W-SW 248 0 min 0,000 mm 0,0 UV-I 0 W/m 3,6 C 10,4 C 16,1 km/h (3 Bft) 99,12 %
19.11.2015 04:20 11,6 C 58 % 1018,5 hPa 0,0 l/m 6,7 km/h (2 Bft) S-SW 201 0 min 0,000 mm 0,0 UV-I 0 W/m 3,6 C 11,4 C 12,9 km/h (3 Bft) 99,19 %
19.11.2015 04:25 11,5 C 58 % 1018,4 hPa 0,0 l/m 8,7 km/h (2 Bft) SW 220 0 min 0,000 mm 0,0 UV-I 0 W/m 3,5 C 10,0 C 16,1 km/h (3 Bft) 100,00 %
19.11.2015 04:30 11,5 C 59 % 1018,4 hPa 0,0 l/m 8,5 km/h (2 Bft) SW 231 0 min 0,000 mm 0,0 UV-I 0 W/m 3,8 C 10,1 C 14,5 km/h (3 Bft) 99,11 %
19.11.2015 04:35 11,4 C 59 % 1018,4 hPa 0,0 l/m 9,7 km/h (2 Bft) SW 224 0 min 0,000 mm 0,0 UV-I 0 W/m 3,7 C 9,3 C 16,1 km/h (3 Bft) 99,17 %
19.11.2015 04:40 11,4 C 59 % 1018,4 hPa 0,0 l/m 10,3 km/h (2 Bft) SW 221 0 min 0,000 mm 0,0 UV-I 0 W/m 3,7 C 9,0 C 16,1 km/h (3 Bft) 99,10 %
19.11.2015 04:45 11,4 C 59 % 1018,3 hPa 0,0 l/m 10,5 km/h (2 Bft) S-SW 200 0 min 0,000 mm 0,0 UV-I 0 W/m 3,7 C 8,9 C 20,9 km/h (4 Bft) 100,00 %
19.11.2015 04:50 11,4 C 59 % 1018,3 hPa 0,0 l/m 11,2 km/h (2 Bft) SW 215 0 min 0,000 mm 0,0 UV-I 0 W/m 3,7 C 8,5 C 19,3 km/h (3 Bft) 100,00 %
19.11.2015 04:55 11,6 C 58 % 1018,1 hPa 0,0 l/m 10,9 km/h (2 Bft) S-SW 206 0 min 0,000 mm 0,0 UV-I 0 W/m 3,6 C 8,9 C 19,3 km/h (3 Bft) 98,29 %
19.11.2015 05:00 11,6 C 59 % 1018,2 hPa 0,0 l/m 11,7 km/h (2 Bft) W-SW 240 0 min 0,051 mm 0,0 UV-I 0 W/m 3,9 C 8,5 C 19,3 km/h (3 Bft) 98,39 %
19.11.2015 05:05 11,6 C 59 % 1018,1 hPa 0,0 l/m 11,3 km/h (2 Bft) SW 232 0 min 0,000 mm 0,0 UV-I 0 W/m 3,9 C 8,7 C 19,3 km/h (3 Bft) 99,15 %
19.11.2015 05:10 11,6 C 59 % 1018,0 hPa 0,0 l/m 11,7 km/h (2 Bft) SW 229 0 min 0,000 mm 0,0 UV-I 0 W/m 3,9 C 8,5 C 19,3 km/h (3 Bft) 99,13 %
19.11.2015 05:15 11,6 C 59 % 1018,0 hPa 0,0 l/m 11,6 km/h (2 Bft) W-SW 237 0 min 0,000 mm 0,0 UV-I 0 W/m 3,9 C 8,5 C 17,7 km/h (3 Bft) 99,11 %
19.11.2015 05:20 11,6 C 60 % 1018,0 hPa 0,0 l/m 11,3 km/h (2 Bft) W-SW 239 0 min 0,000 mm 0,0 UV-I 0 W/m 4,1 C 8,7 C 20,9 km/h (4 Bft) 98,37 %
19.11.2015 05:25 11,3 C 61 % 1018,0 hPa 0,0 l/m 8,5 km/h (2 Bft) S-SW 210 0 min 0,000 mm 0,0 UV-I 0 W/m 4,1 C 9,9 C 12,9 km/h (3 Bft) 99,11 %
19.11.2015 05:30 11,2 C 62 % 1018,0 hPa 0,0 l/m 10,2 km/h (2 Bft) SW 227 0 min 0,000 mm 0,0 UV-I 0 W/m 4,2 C 8,8 C 17,7 km/h (3 Bft) 100,00 %
19.11.2015 05:35 11,1 C 62 % 1017,9 hPa 0,0 l/m 10,0 km/h (2 Bft) SW 234 0 min 0,000 mm 0,0 UV-I 0 W/m 4,1 C 8,8 C 16,1 km/h (3 Bft) 99,15 %
19.11.2015 05:40 11,1 C 63 % 1017,9 hPa 0,0 l/m 10,0 km/h (2 Bft) S-SW 208 0 min 0,000 mm 0,0 UV-I 0 W/m 4,3 C 8,8 C 17,7 km/h (3 Bft) 99,13 %
19.11.2015 05:45 10,9 C 64 % 1017,8 hPa 0,0 l/m 7,9 km/h (2 Bft) W-SW 250 0 min 0,000 mm 0,0 UV-I 0 W/m 4,4 C 9,9 C 17,7 km/h (3 Bft) 99,13 %
19.11.2015 05:50 10,6 C 65 % 1017,8 hPa 0,0 l/m 5,5 km/h (1 Bft) W 271 0 min 0,000 mm 0,0 UV-I 0 W/m 4,3 C 10,6 C 11,3 km/h (2 Bft) 99,10 %
19.11.2015 05:55 10,5 C 66 % 1017,7 hPa 0,0 l/m 4,5 km/h (1 Bft) SW 232 0 min 0,000 mm 0,0 UV-I 0 W/m 4,4 C 10,5 C 11,3 km/h (2 Bft) 100,00 %
19.11.2015 06:00 10,4 C 66 % 1017,7 hPa 0,0 l/m 4,9 km/h (1 Bft) SW 233 0 min 0,051 mm 0,0 UV-I 0 W/m 4,3 C 10,4 C 11,3 km/h (2 Bft) 99,11 %
19.11.2015 06:05 10,6 C 65 % 1017,6 hPa 0,0 l/m 7,6 km/h (2 Bft) SW 217 0 min 0,000 mm 0,0 UV-I 0 W/m 4,3 C 9,8 C 17,7 km/h (3 Bft) 98,37 %
19.11.2015 06:10 11,0 C 63 % 1017,5 hPa 0,0 l/m 11,2 km/h (2 Bft) SW 219 0 min 0,000 mm 0,0 UV-I 0 W/m 4,2 C 8,1 C 16,1 km/h (3 Bft) 100,00 %
19.11.2015 06:15 11,2 C 63 % 1017,5 hPa 0,0 l/m 10,5 km/h (2 Bft) SW 234 0 min 0,000 mm 0,0 UV-I 0 W/m 4,4 C 8,7 C 19,3 km/h (3 Bft) 96,75 %
19.11.2015 06:20 11,2 C 63 % 1017,5 hPa 0,0 l/m 5,7 km/h (1 Bft) W 263 0 min 0,000 mm 0,0 UV-I 0 W/m 4,4 C 11,2 C 9,7 km/h (2 Bft) 100,00 %
19.11.2015 06:25 11,2 C 63 % 1017,5 hPa 0,0 l/m 5,4 km/h (1 Bft) SW 229 0 min 0,000 mm 0,0 UV-I 0 W/m 4,4 C 11,2 C 11,3 km/h (2 Bft) 100,00 %
19.11.2015 06:30 11,3 C 62 % 1017,5 hPa 0,0 l/m 5,5 km/h (1 Bft) SW 234 0 min 0,000 mm 0,0 UV-I 0 W/m 4,3 C 11,3 C 11,3 km/h (2 Bft) 99,19 %
19.11.2015 06:35 11,3 C 62 % 1017,6 hPa 0,0 l/m 4,5 km/h (1 Bft) S-SW 206 0 min 0,000 mm 0,0 UV-I 0 W/m 4,3 C 11,3 C 8,0 km/h (2 Bft) 99,08 %
19.11.2015 06:40 11,3 C 62 % 1017,5 hPa 0,0 l/m 4,8 km/h (1 Bft) SW 223 0 min 0,000 mm 0,0 UV-I 0 W/m 4,3 C 11,3 C 11,3 km/h (2 Bft) 98,41 %
19.11.2015 06:45 11,4 C 61 % 1017,4 hPa 0,0 l/m 8,3 km/h (2 Bft) W-SW 238 0 min 0,000 mm 0,0 UV-I 0 W/m 4,2 C 10,1 C 16,1 km/h (3 Bft) 98,26 %
19.11.2015 06:50 11,5 C 60 % 1017,4 hPa 0,0 l/m 8,4 km/h (2 Bft) W-SW 238 0 min 0,000 mm 0,0 UV-I 0 W/m 4,0 C 10,2 C 14,5 km/h (3 Bft) 99,08 %
19.11.2015 06:55 11,6 C 60 % 1017,2 hPa 0,0 l/m 7,5 km/h (2 Bft) W-SW 240 0 min 0,000 mm 0,0 UV-I 0 W/m 4,1 C 10,9 C 14,5 km/h (3 Bft) 100,00 %
19.11.2015 07:00 11,7 C 59 % 1017,1 hPa 0,0 l/m 8,0 km/h (2 Bft) W 270 0 min 0,025 mm 0,0 UV-I 0 W/m 4,0 C 10,6 C 14,5 km/h (3 Bft) 99,17 %
19.11.2015 07:05 11,8 C 59 % 1017,0 hPa 0,0 l/m 8,1 km/h (2 Bft) SW 221 0 min 0,000 mm 0,0 UV-I 0 W/m 4,1 C 10,7 C 14,5 km/h (3 Bft) 99,11 %
19.11.2015 07:10 11,8 C 59 % 1017,0 hPa 0,0 l/m 7,6 km/h (2 Bft) SW 219 0 min 0,000 mm 0,0 UV-I 0 W/m 4,1 C 11,0 C 12,9 km/h (3 Bft) 98,37 %
19.11.2015 07:15 11,7 C 61 % 1017,0 hPa 0,0 l/m 4,1 km/h (1 Bft) S-SW 209 0 min 0,000 mm 0,0 UV-I 0 W/m 4,4 C 11,7 C 8,0 km/h (2 Bft) 96,33 %
19.11.2015 07:20 11,7 C 61 % 1016,9 hPa 0,0 l/m 6,0 km/h (2 Bft) S-SW 209 0 min 0,000 mm 0,0 UV-I 0 W/m 4,4 C 11,7 C 12,9 km/h (3 Bft) 98,26 %
19.11.2015 07:25 11,8 C 60 % 1016,9 hPa 0,0 l/m 8,4 km/h (2 Bft) SW 223 0 min 0,000 mm 0,0 UV-I 5 W/m 4,3 C 10,5 C 16,1 km/h (3 Bft) 100,00 %
19.11.2015 07:30 11,8 C 60 % 1016,9 hPa 0,0 l/m 7,1 km/h (2 Bft) SW 215 0 min 0,000 mm 0,0 UV-I 7 W/m 4,3 C 11,3 C 12,9 km/h (3 Bft) 100,00 %
19.11.2015 07:35 11,9 C 60 % 1016,9 hPa 0,0 l/m 9,2 km/h (2 Bft) SW 219 0 min 0,000 mm 0,0 UV-I 8 W/m 4,4 C 10,1 C 14,5 km/h (3 Bft) 98,20 %
19.11.2015 07:40 11,9 C 60 % 1016,9 hPa 0,0 l/m 6,3 km/h (2 Bft) W-SW 242 0 min 0,000 mm 0,0 UV-I 9 W/m 4,4 C 11,9 C 9,7 km/h (2 Bft) 98,21 %
19.11.2015 07:45 11,9 C 60 % 1016,8 hPa 0,0 l/m 6,5 km/h (2 Bft) SW 220 0 min 0,000 mm 0,0 UV-I 12 W/m 4,4 C 11,9 C 12,9 km/h (3 Bft) 99,22 %
19.11.2015 07:50 12,1 C 59 % 1016,8 hPa 0,0 l/m 6,5 km/h (2 Bft) W-SW 238 0 min 0,000 mm 0,0 UV-I 18 W/m 4,3 C 12,1 C 11,3 km/h (2 Bft) 97,32 %
19.11.2015 07:55 11,9 C 60 % 1017,0 hPa 0,0 l/m 5,1 km/h (1 Bft) W-SW 257 0 min 0,000 mm 0,0 UV-I 26 W/m 4,4 C 11,9 C 8,0 km/h (2 Bft) 98,31 %
19.11.2015 08:00 11,7 C 62 % 1017,1 hPa 0,0 l/m 3,8 km/h (1 Bft) W 277 0 min 0,051 mm 0,0 UV-I 39 W/m 4,7 C 11,7 C 9,7 km/h (2 Bft) 99,12 %
19.11.2015 08:05 11,5 C 62 % 1017,2 hPa 0,0 l/m 4,6 km/h (1 Bft) SW 227 0 min 0,000 mm 0,0 UV-I 58 W/m 4,5 C 11,5 C 9,7 km/h (2 Bft) 99,15 %
19.11.2015 08:10 11,8 C 61 % 1017,2 hPa 0,0 l/m 6,3 km/h (2 Bft) SW 216 5 min 0,000 mm 0,0 UV-I 72 W/m 4,5 C 11,8 C 11,3 km/h (2 Bft) 96,69 %
19.11.2015 08:15 11,9 C 60 % 1017,2 hPa 0,0 l/m 8,1 km/h (2 Bft) W-SW 250 0 min 0,000 mm 0,0 UV-I 59 W/m 4,4 C 10,8 C 12,9 km/h (3 Bft) 99,12 %
19.11.2015 08:20 11,8 C 61 % 1017,3 hPa 0,0 l/m 7,2 km/h (2 Bft) SW 230 5 min 0,000 mm 0,0 UV-I 83 W/m 4,5 C 11,3 C 11,3 km/h (2 Bft) 98,26 %
19.11.2015 08:25 12,1 C 60 % 1017,4 hPa 0,0 l/m 7,8 km/h (2 Bft) SW 228 5 min 0,000 mm 0,0 UV-I 85 W/m 4,6 C 11,2 C 14,5 km/h (3 Bft) 99,13 %
19.11.2015 08:30 12,4 C 58 % 1017,4 hPa 0,0 l/m 9,0 km/h (2 Bft) SW 234 5 min 0,000 mm 0,0 UV-I 105 W/m 4,4 C 10,8 C 19,3 km/h (3 Bft) 96,75 %
19.11.2015 08:35 12,7 C 59 % 1017,5 hPa 0,0 l/m 6,7 km/h (2 Bft) W-SW 239 5 min 0,000 mm 0,0 UV-I 104 W/m 4,9 C 12,5 C 14,5 km/h (3 Bft) 97,52 %
19.11.2015 08:40 13,3 C 59 % 1017,5 hPa 0,0 l/m 11,9 km/h (2 Bft) W-SW 256 5 min 0,000 mm 0,0 UV-I 118 W/m 5,5 C 10,4 C 29,0 km/h (5 Bft) 100,00 %
19.11.2015 08:45 13,8 C 61 % 1017,4 hPa 0,0 l/m 11,0 km/h (2 Bft) S-SW 194 5 min 0,000 mm 0,0 UV-I 117 W/m 6,4 C 11,3 C 19,3 km/h (3 Bft) 98,41 %
19.11.2015 08:50 14,6 C 62 % 1017,4 hPa 0,0 l/m 13,1 km/h (3 Bft) W-SW 241 5 min 0,000 mm 0,0 UV-I 126 W/m 7,4 C 11,4 C 25,7 km/h (4 Bft) 99,13 %
19.11.2015 08:55 14,8 C 62 % 1017,5 hPa 0,0 l/m 12,0 km/h (2 Bft) W 265 0 min 0,000 mm 0,0 UV-I 106 W/m 7,6 C 12,0 C 24,1 km/h (4 Bft) 100,00 %
19.11.2015 09:00 15,0 C 61 % 1017,4 hPa 0,0 l/m 11,9 km/h (2 Bft) W-NW 293 5 min 0,102 mm 0,0 UV-I 133 W/m 7,5 C 12,3 C 22,5 km/h (4 Bft) 100,00 %
19.11.2015 09:05 15,0 C 61 % 1017,5 hPa 0,0 l/m 14,1 km/h (3 Bft) W 268 5 min 0,000 mm 0,0 UV-I 133 W/m 7,5 C 11,5 C 27,4 km/h (4 Bft) 97,39 %
19.11.2015 09:10 15,0 C 61 % 1017,5 hPa 0,0 l/m 11,7 km/h (2 Bft) W 273 5 min 0,000 mm 0,0 UV-I 143 W/m 7,5 C 12,4 C 25,7 km/h (4 Bft) 99,20 %
19.11.2015 09:15 15,0 C 60 % 1017,5 hPa 0,0 l/m 14,2 km/h (3 Bft) S-SW 211 5 min 0,000 mm 0,0 UV-I 151 W/m 7,3 C 11,5 C 20,9 km/h (4 Bft) 100,00 %
19.11.2015 09:20 15,1 C 59 % 1017,5 hPa 0,0 l/m 12,3 km/h (3 Bft) W 275 5 min 0,000 mm 0,0 UV-I 168 W/m 7,1 C 12,3 C 22,5 km/h (4 Bft) 99,06 %
19.11.2015 09:25 15,2 C 59 % 1017,5 hPa 0,0 l/m 12,9 km/h (3 Bft) W 273 5 min 0,000 mm 0,5 UV-I 215 W/m 7,2 C 12,2 C 22,5 km/h (4 Bft) 100,00 %
19.11.2015 09:30 15,2 C 59 % 1017,6 hPa 0,0 l/m 11,2 km/h (2 Bft) W 259 5 min 0,000 mm 0,5 UV-I 221 W/m 7,2 C 12,8 C 20,9 km/h (4 Bft) 100,00 %
19.11.2015 09:35 15,2 C 59 % 1017,6 hPa 0,0 l/m 8,4 km/h (2 Bft) W 270 5 min 0,000 mm 0,5 UV-I 158 W/m 7,2 C 14,1 C 19,3 km/h (3 Bft) 100,00 %
19.11.2015 09:40 15,2 C 59 % 1017,3 hPa 0,0 l/m 12,8 km/h (3 Bft) W-NW 296 5 min 0,000 mm 0,5 UV-I 169 W/m 7,2 C 12,2 C 24,1 km/h (4 Bft) 100,00 %
19.11.2015 09:45 15,2 C 59 % 1017,4 hPa 0,0 l/m 12,4 km/h (3 Bft) W 268 5 min 0,000 mm 0,6 UV-I 188 W/m 7,2 C 12,3 C 24,1 km/h (4 Bft) 99,11 %
19.11.2015 09:50 15,3 C 58 % 1017,4 hPa 0,0 l/m 10,9 km/h (2 Bft) SW 221 5 min 0,000 mm 0,6 UV-I 233 W/m 7,1 C 13,1 C 24,1 km/h (4 Bft) 100,00 %
19.11.2015 09:55 15,4 C 58 % 1017,5 hPa 0,0 l/m 13,3 km/h (3 Bft) W-SW 252 5 min 0,000 mm 0,6 UV-I 252 W/m 7,2 C 12,3 C 24,1 km/h (4 Bft) 99,19 %
19.11.2015 10:00 15,4 C 57 % 1017,6 hPa 0,0 l/m 10,7 km/h (2 Bft) S-SW 208 5 min 0,152 mm 0,7 UV-I 221 W/m 6,9 C 13,3 C 20,9 km/h (4 Bft) 98,17 %
19.11.2015 10:05 15,3 C 57 % 1017,4 hPa 0,0 l/m 13,1 km/h (3 Bft) W-NW 295 0 min 0,000 mm 0,7 UV-I 159 W/m 6,8 C 12,2 C 22,5 km/h (4 Bft) 99,21 %
19.11.2015 10:10 15,4 C 57 % 1017,5 hPa 0,0 l/m 13,0 km/h (3 Bft) W-NW 283 5 min 0,000 mm 0,7 UV-I 234 W/m 6,9 C 12,4 C 20,9 km/h (4 Bft) 100,00 %
19.11.2015 10:15 15,7 C 57 % 1017,5 hPa 0,0 l/m 17,2 km/h (3 Bft) W-SW 238 5 min 0,000 mm 0,8 UV-I 303 W/m 7,2 C 11,4 C 27,4 km/h (4 Bft) 100,00 %
19.11.2015 10:20 15,7 C 57 % 1017,5 hPa 0,0 l/m 15,7 km/h (3 Bft) W-NW 284 5 min 0,000 mm 0,8 UV-I 260 W/m 7,2 C 11,8 C 32,2 km/h (5 Bft) 99,11 %
19.11.2015 10:25 15,5 C 57 % 1017,4 hPa 0,0 l/m 14,7 km/h (3 Bft) W-NW 287 0 min 0,000 mm 0,7 UV-I 98 W/m 7,0 C 11,9 C 25,7 km/h (4 Bft) 99,17 %
19.11.2015 10:30 15,6 C 57 % 1017,4 hPa 0,0 l/m 13,2 km/h (3 Bft) W-SW 254 5 min 0,000 mm 0,9 UV-I 294 W/m 7,1 C 12,5 C 29,0 km/h (5 Bft) 99,15 %
19.11.2015 10:35 15,8 C 57 % 1017,4 hPa 0,0 l/m 16,8 km/h (3 Bft) SW 227 5 min 0,000 mm 0,9 UV-I 315 W/m 7,3 C 11,6 C 29,0 km/h (5 Bft) 100,00 %
19.11.2015 10:40 15,6 C 57 % 1017,5 hPa 0,0 l/m 13,1 km/h (3 Bft) W-NW 283 0 min 0,000 mm 0,7 UV-I 132 W/m 7,1 C 12,6 C 25,7 km/h (4 Bft) 99,15 %
19.11.2015 10:45 15,4 C 57 % 1017,6 hPa 0,0 l/m 11,6 km/h (2 Bft) W-NW 298 5 min 0,000 mm 0,8 UV-I 212 W/m 6,9 C 12,9 C 24,1 km/h (4 Bft) 99,15 %
19.11.2015 10:50 15,7 C 57 % 1017,6 hPa 0,0 l/m 13,7 km/h (3 Bft) W-NW 293 5 min 0,000 mm 1,0 UV-I 316 W/m 7,2 C 12,5 C 20,9 km/h (4 Bft) 100,00 %
19.11.2015 10:55 15,9 C 57 % 1017,7 hPa 0,0 l/m 10,8 km/h (2 Bft) W-NW 292 5 min 0,000 mm 1,0 UV-I 340 W/m 7,4 C 13,8 C 20,9 km/h (4 Bft) 99,11 %
19.11.2015 11:00 16,0 C 57 % 1017,8 hPa 0,0 l/m 9,8 km/h (2 Bft) W 271 5 min 0,203 mm 1,0 UV-I 350 W/m 7,5 C 14,3 C 19,3 km/h (3 Bft) 99,19 %
19.11.2015 11:05 16,0 C 58 % 1017,8 hPa 0,0 l/m 9,7 km/h (2 Bft) NW 311 5 min 0,000 mm 1,0 UV-I 301 W/m 7,7 C 14,4 C 19,3 km/h (3 Bft) 98,35 %
19.11.2015 11:10 16,1 C 56 % 1017,8 hPa 0,0 l/m 11,2 km/h (2 Bft) W-NW 297 5 min 0,000 mm 1,2 UV-I 401 W/m 7,3 C 13,8 C 22,5 km/h (4 Bft) 99,10 %
19.11.2015 11:15 16,2 C 56 % 1017,8 hPa 0,0 l/m 11,4 km/h (2 Bft) W-SW 254 5 min 0,000 mm 1,2 UV-I 412 W/m 7,4 C 13,9 C 22,5 km/h (4 Bft) 100,00 %
19.11.2015 11:20 16,1 C 56 % 1017,8 hPa 0,0 l/m 15,8 km/h (3 Bft) W-NW 287 5 min 0,000 mm 1,1 UV-I 396 W/m 7,3 C 12,3 C 33,8 km/h (5 Bft) 99,17 %
19.11.2015 11:25 16,0 C 56 % 1017,9 hPa 0,0 l/m 14,7 km/h (3 Bft) W 279 5 min 0,000 mm 1,1 UV-I 397 W/m 7,2 C 12,5 C 30,6 km/h (5 Bft) 100,00 %
19.11.2015 11:30 15,9 C 56 % 1017,9 hPa 0,0 l/m 14,9 km/h (3 Bft) W-NW 287 5 min 0,000 mm 1,1 UV-I 265 W/m 7,1 C 12,3 C 35,4 km/h (5 Bft) 100,00 %
19.11.2015 11:35 16,0 C 56 % 1017,7 hPa 0,0 l/m 19,1 km/h (3 Bft) W 280 5 min 0,000 mm 1,1 UV-I 375 W/m 7,2 C 11,3 C 30,6 km/h (5 Bft) 98,21 %
19.11.2015 11:40 15,9 C 56 % 1018,0 hPa 0,0 l/m 19,2 km/h (3 Bft) NW 308 5 min 0,000 mm 1,1 UV-I 365 W/m 7,1 C 11,1 C 33,8 km/h (5 Bft) 99,19 %
19.11.2015 11:45 15,9 C 56 % 1017,8 hPa 0,0 l/m 13,5 km/h (3 Bft) W-SW 251 5 min 0,000 mm 1,0 UV-I 302 W/m 7,1 C 12,8 C 24,1 km/h (4 Bft) 99,19 %
19.11.2015 11:50 15,9 C 56 % 1017,8 hPa 0,0 l/m 13,8 km/h (3 Bft) W-NW 296 5 min 0,000 mm 1,0 UV-I 288 W/m 7,1 C 12,7 C 25,7 km/h (4 Bft) 100,00 %
19.11.2015 11:55 16,1 C 55 % 1017,7 hPa 0,0 l/m 17,6 km/h (3 Bft) W 267 5 min 0,000 mm 1,0 UV-I 302 W/m 7,1 C 11,8 C 29,0 km/h (5 Bft) 100,00 %
19.11.2015 12:00 16,2 C 54 % 1017,8 hPa 0,0 l/m 19,1 km/h (3 Bft) NW 311 5 min 0,000 mm 1,1 UV-I 355 W/m 6,9 C 11,5 C 38,6 km/h (5 Bft) 100,00 %
19.11.2015 12:05 16,3 C 56 % 1017,6 hPa 0,0 l/m 14,8 km/h (3 Bft) W-NW 302 5 min 0,254 mm 1,1 UV-I 337 W/m 7,5 C 12,8 C 20,9 km/h (4 Bft) 100,00 %
19.11.2015 12:10 16,2 C 55 % 1017,6 hPa 0,0 l/m 14,9 km/h (3 Bft) W-NW 298 5 min 0,000 mm 1,1 UV-I 332 W/m 7,2 C 12,7 C 30,6 km/h (5 Bft) 99,19 %
19.11.2015 12:15 16,2 C 54 % 1017,6 hPa 0,0 l/m 15,3 km/h (3 Bft) W 277 5 min 0,000 mm 1,1 UV-I 289 W/m 6,9 C 12,6 C 29,0 km/h (5 Bft) 100,00 %
19.11.2015 12:20 16,2 C 54 % 1017,6 hPa 0,0 l/m 18,3 km/h (3 Bft) NW 308 5 min 0,000 mm 1,0 UV-I 349 W/m 6,9 C 11,7 C 37,0 km/h (5 Bft) 99,12 %
19.11.2015 12:25 16,2 C 53 % 1017,5 hPa 0,0 l/m 17,1 km/h (3 Bft) W 279 5 min 0,000 mm 1,0 UV-I 327 W/m 6,6 C 12,0 C 33,8 km/h (5 Bft) 100,00 %
19.11.2015 12:30 16,1 C 54 % 1017,4 hPa 0,0 l/m 16,6 km/h (3 Bft) W 277 5 min 0,000 mm 0,9 UV-I 235 W/m 6,8 C 12,1 C 32,2 km/h (5 Bft) 100,00 %
19.11.2015 12:35 16,2 C 54 % 1017,4 hPa 0,0 l/m 17,9 km/h (3 Bft) W 278 5 min 0,000 mm 1,0 UV-I 326 W/m 6,9 C 11,8 C 38,6 km/h (5 Bft) 100,00 %
19.11.2015 12:40 16,2 C 54 % 1017,3 hPa 0,0 l/m 13,9 km/h (3 Bft) S-SW 213 5 min 0,000 mm 0,8 UV-I 284 W/m 6,9 C 13,0 C 22,5 km/h (4 Bft) 100,00 %
19.11.2015 12:45 16,2 C 52 % 1017,3 hPa 0,0 l/m 14,8 km/h (3 Bft) W 267 5 min 0,000 mm 0,8 UV-I 251 W/m 6,3 C 12,7 C 30,6 km/h (5 Bft) 100,00 %
19.11.2015 12:50 16,2 C 52 % 1017,3 hPa 0,0 l/m 15,4 km/h (3 Bft) W 265 0 min 0,000 mm 0,6 UV-I 182 W/m 6,3 C 12,5 C 32,2 km/h (5 Bft) 99,17 %
19.11.2015 12:55 16,1 C 53 % 1017,3 hPa 0,0 l/m 16,0 km/h (3 Bft) W-NW 291 0 min 0,000 mm 0,5 UV-I 166 W/m 6,5 C 12,2 C 27,4 km/h (4 Bft) 98,31 %
19.11.2015 13:00 15,9 C 53 % 1017,2 hPa 0,0 l/m 14,5 km/h (3 Bft) SW 234 0 min 0,229 mm 0,5 UV-I 118 W/m 6,3 C 12,4 C 25,7 km/h (4 Bft) 97,50 %
19.11.2015 13:05 15,8 C 54 % 1017,2 hPa 0,0 l/m 16,8 km/h (3 Bft) W-SW 254 0 min 0,000 mm 0,2 UV-I 97 W/m 6,5 C 11,6 C 30,6 km/h (5 Bft) 99,11 %
19.11.2015 13:10 15,8 C 54 % 1017,2 hPa 0,0 l/m 15,4 km/h (3 Bft) W 277 0 min 0,000 mm 0,0 UV-I 92 W/m 6,5 C 12,0 C 33,8 km/h (5 Bft) 99,11 %
19.11.2015 13:15 15,7 C 55 % 1017,2 hPa 0,0 l/m 15,3 km/h (3 Bft) W 271 0 min 0,000 mm 0,5 UV-I 116 W/m 6,7 C 11,9 C 32,2 km/h (5 Bft) 100,00 %
19.11.2015 13:20 15,6 C 55 % 1017,0 hPa 0,0 l/m 12,3 km/h (3 Bft) W-NW 282 0 min 0,000 mm 0,2 UV-I 104 W/m 6,6 C 12,8 C 19,3 km/h (3 Bft) 100,00 %
19.11.2015 13:25 15,4 C 57 % 1016,8 hPa 0,0 l/m 9,3 km/h (2 Bft) SW 232 0 min 0,000 mm 0,0 UV-I 86 W/m 6,9 C 13,9 C 17,7 km/h (3 Bft) 97,44 %
19.11.2015 13:30 15,3 C 57 % 1016,9 hPa 0,0 l/m 9,8 km/h (2 Bft) W 263 0 min 0,000 mm 0,0 UV-I 84 W/m 6,8 C 13,5 C 17,7 km/h (3 Bft) 99,17 %
19.11.2015 13:35 15,3 C 57 % 1016,8 hPa 0,0 l/m 8,9 km/h (2 Bft) W 279 0 min 0,000 mm 0,0 UV-I 85 W/m 6,8 C 14,0 C 16,1 km/h (3 Bft) 100,00 %
19.11.2015 13:40 15,3 C 57 % 1016,7 hPa 0,0 l/m 10,6 km/h (2 Bft) W 259 0 min 0,000 mm 0,3 UV-I 118 W/m 6,8 C 13,2 C 19,3 km/h (3 Bft) 98,25 %
19.11.2015 13:45 15,4 C 57 % 1016,4 hPa 0,0 l/m 12,3 km/h (3 Bft) SW 215 0 min 0,000 mm 0,5 UV-I 145 W/m 6,9 C 12,6 C 25,7 km/h (4 Bft) 100,00 %
19.11.2015 13:50 15,4 C 58 % 1016,4 hPa 0,0 l/m 9,6 km/h (2 Bft) W-NW 298 0 min 0,000 mm 0,4 UV-I 141 W/m 7,2 C 13,7 C 19,3 km/h (3 Bft) 100,00 %
19.11.2015 13:55 15,3 C 59 % 1016,3 hPa 0,0 l/m 9,8 km/h (2 Bft) SW 222 0 min 0,000 mm 0,0 UV-I 113 W/m 7,3 C 13,5 C 20,9 km/h (4 Bft) 99,15 %
19.11.2015 14:00 15,2 C 59 % 1016,3 hPa 0,0 l/m 9,1 km/h (2 Bft) W-SW 252 0 min 0,000 mm 0,0 UV-I 93 W/m 7,2 C 13,8 C 25,7 km/h (4 Bft) 100,00 %
19.11.2015 14:05 15,3 C 60 % 1016,3 hPa 0,0 l/m 10,5 km/h (2 Bft) W-SW 255 0 min 0,127 mm 0,0 UV-I 90 W/m 7,6 C 13,2 C 20,9 km/h (4 Bft) 99,21 %
19.11.2015 14:10 15,3 C 61 % 1016,3 hPa 0,0 l/m 10,0 km/h (2 Bft) W-SW 254 0 min 0,000 mm 0,0 UV-I 85 W/m 7,8 C 13,4 C 19,3 km/h (3 Bft) 100,00 %
19.11.2015 14:15 15,1 C 61 % 1016,2 hPa 0,0 l/m 8,6 km/h (2 Bft) W-SW 256 0 min 0,000 mm 0,0 UV-I 80 W/m 7,6 C 13,9 C 14,5 km/h (3 Bft) 99,11 %
19.11.2015 14:20 15,2 C 62 % 1016,0 hPa 0,0 l/m 9,3 km/h (2 Bft) SW 227 0 min 0,000 mm 0,0 UV-I 106 W/m 8,0 C 13,7 C 20,9 km/h (4 Bft) 100,00 %
19.11.2015 14:25 15,2 C 63 % 1015,9 hPa 0,0 l/m 8,8 km/h (2 Bft) SW 224 0 min 0,000 mm 0,0 UV-I 94 W/m 8,2 C 13,9 C 19,3 km/h (3 Bft) 100,00 %
19.11.2015 14:30 15,1 C 63 % 1015,8 hPa 0,0 l/m 8,5 km/h (2 Bft) SW 219 0 min 0,000 mm 0,0 UV-I 73 W/m 8,1 C 13,9 C 17,7 km/h (3 Bft) 100,00 %
19.11.2015 14:35 14,8 C 64 % 1015,8 hPa 0,0 l/m 6,6 km/h (2 Bft) W-NW 290 0 min 0,000 mm 0,0 UV-I 69 W/m 8,1 C 14,7 C 12,9 km/h (3 Bft) 100,00 %
19.11.2015 14:40 14,9 C 65 % 1015,9 hPa 0,0 l/m 6,4 km/h (2 Bft) W 280 0 min 0,000 mm 0,0 UV-I 110 W/m 8,4 C 14,9 C 14,5 km/h (3 Bft) 98,43 %
19.11.2015 14:45 15,2 C 64 % 1015,9 hPa 0,0 l/m 5,1 km/h (1 Bft) W 267 5 min 0,000 mm 0,0 UV-I 133 W/m 8,4 C 15,2 C 11,3 km/h (2 Bft) 99,15 %
19.11.2015 14:50 15,4 C 63 % 1016,0 hPa 0,0 l/m 6,4 km/h (2 Bft) W 277 5 min 0,000 mm 0,0 UV-I 174 W/m 8,4 C 15,4 C 16,1 km/h (3 Bft) 100,00 %
19.11.2015 14:55 15,4 C 63 % 1016,1 hPa 0,0 l/m 6,8 km/h (2 Bft) W-NW 302 5 min 0,000 mm 0,0 UV-I 117 W/m 8,4 C 15,2 C 14,5 km/h (3 Bft) 100,00 %
19.11.2015 15:00 15,4 C 63 % 1016,2 hPa 0,0 l/m 7,5 km/h (2 Bft) W-NW 290 5 min 0,000 mm 0,0 UV-I 98 W/m 8,4 C 14,8 C 14,5 km/h (3 Bft) 100,00 %
19.11.2015 15:05 15,4 C 63 % 1016,4 hPa 0,0 l/m 4,8 km/h (1 Bft) NW 317 0 min 0,102 mm 0,0 UV-I 77 W/m 8,4 C 15,4 C 11,3 km/h (2 Bft) 98,39 %
19.11.2015 15:10 15,5 C 63 % 1016,3 hPa 0,0 l/m 4,5 km/h (1 Bft) W 268 0 min 0,000 mm 0,0 UV-I 81 W/m 8,5 C 15,5 C 11,3 km/h (2 Bft) 100,00 %
19.11.2015 15:15 15,7 C 62 % 1016,2 hPa 0,0 l/m 4,9 km/h (1 Bft) W 278 5 min 0,000 mm 0,0 UV-I 116 W/m 8,4 C 15,7 C 17,7 km/h (3 Bft) 99,21 %
19.11.2015 15:20 15,8 C 61 % 1016,3 hPa 0,0 l/m 7,6 km/h (2 Bft) W-SW 238 5 min 0,000 mm 0,0 UV-I 106 W/m 8,3 C 15,1 C 14,5 km/h (3 Bft) 99,11 %
19.11.2015 15:25 15,9 C 61 % 1016,2 hPa 0,0 l/m 8,3 km/h (2 Bft) W-NW 299 5 min 0,000 mm 0,0 UV-I 120 W/m 8,4 C 14,9 C 12,9 km/h (3 Bft) 100,00 %
19.11.2015 15:30 15,9 C 61 % 1016,2 hPa 0,0 l/m 6,2 km/h (2 Bft) W 261 5 min 0,000 mm 0,0 UV-I 90 W/m 8,4 C 15,9 C 14,5 km/h (3 Bft) 99,11 %
19.11.2015 15:35 15,9 C 60 % 1016,2 hPa 0,0 l/m 8,0 km/h (2 Bft) W-NW 290 5 min 0,000 mm 0,0 UV-I 83 W/m 8,1 C 15,0 C 14,5 km/h (3 Bft) 100,00 %
19.11.2015 15:40 15,8 C 61 % 1016,2 hPa 0,0 l/m 8,1 km/h (2 Bft) W-SW 237 5 min 0,000 mm 0,0 UV-I 50 W/m 8,3 C 14,9 C 14,5 km/h (3 Bft) 100,00 %
19.11.2015 15:45 15,5 C 61 % 1016,0 hPa 0,0 l/m 6,7 km/h (2 Bft) W-NW 295 0 min 0,000 mm 0,0 UV-I 33 W/m 8,0 C 15,3 C 17,7 km/h (3 Bft) 100,00 %
19.11.2015 15:50 15,2 C 62 % 1016,0 hPa 0,0 l/m 6,6 km/h (2 Bft) W-SW 255 0 min 0,000 mm 0,0 UV-I 21 W/m 8,0 C 15,1 C 16,1 km/h (3 Bft) 100,00 %
19.11.2015 15:55 15,1 C 61 % 1016,0 hPa 0,0 l/m 5,9 km/h (2 Bft) W-NW 289 0 min 0,000 mm 0,0 UV-I 22 W/m 7,6 C 15,1 C 14,5 km/h (3 Bft) 100,00 %
19.11.2015 16:00 14,9 C 61 % 1016,0 hPa 0,0 l/m 5,7 km/h (1 Bft) W-NW 284 0 min 0,076 mm 0,0 UV-I 18 W/m 7,4 C 14,9 C 14,5 km/h (3 Bft) 100,00 %
19.11.2015 16:05 14,9 C 59 % 1015,8 hPa 0,0 l/m 9,2 km/h (2 Bft) W 265 0 min 0,000 mm 0,0 UV-I 15 W/m 7,0 C 13,4 C 24,1 km/h (4 Bft) 99,15 %
19.11.2015 16:10 14,8 C 59 % 1015,8 hPa 0,0 l/m 6,8 km/h (2 Bft) W-NW 287 5 min 0,000 mm 0,0 UV-I 12 W/m 6,9 C 14,6 C 14,5 km/h (3 Bft) 100,00 %
19.11.2015 16:15 14,8 C 58 % 1015,7 hPa 0,0 l/m 6,8 km/h (2 Bft) W 271 0 min 0,000 mm 0,0 UV-I 9 W/m 6,6 C 14,6 C 16,1 km/h (3 Bft) 98,35 %
19.11.2015 16:20 14,7 C 58 % 1015,6 hPa 0,0 l/m 4,1 km/h (1 Bft) W-NW 300 0 min 0,000 mm 0,0 UV-I 7 W/m 6,5 C 14,7 C 9,7 km/h (2 Bft) 98,25 %
19.11.2015 16:25 14,4 C 59 % 1015,7 hPa 0,0 l/m 2,6 km/h (1 Bft) W 275 0 min 0,000 mm 0,0 UV-I 5 W/m 6,5 C 14,4 C 4,8 km/h (1 Bft) 99,11 %
19.11.2015 16:30 14,1 C 60 % 1015,7 hPa 0,0 l/m 1,7 km/h (1 Bft) W-SW 258 0 min 0,000 mm 0,0 UV-I 1 W/m 6,5 C 14,1 C 4,8 km/h (1 Bft) 99,11 %
19.11.2015 16:35 13,8 C 61 % 1015,8 hPa 0,0 l/m 0,5 km/h (0 Bft) W-SW 258 0 min 0,000 mm 0,0 UV-I 0 W/m 6,4 C 13,8 C 3,2 km/h (1 Bft) 98,41 %
19.11.2015 16:40 13,6 C 62 % 1015,8 hPa 0,0 l/m 1,8 km/h (1 Bft) W-NW 290 0 min 0,000 mm 0,0 UV-I 0 W/m 6,5 C 13,6 C 4,8 km/h (1 Bft) 100,00 %
19.11.2015 16:45 13,6 C 63 % 1015,8 hPa 0,0 l/m 1,7 km/h (1 Bft) W 263 0 min 0,000 mm 0,0 UV-I 0 W/m 6,7 C 13,6 C 3,2 km/h (1 Bft) 99,19 %
19.11.2015 16:50 13,6 C 62 % 1015,8 hPa 0,0 l/m 3,2 km/h (1 Bft) SW 219 0 min 0,000 mm 0,0 UV-I 0 W/m 6,5 C 13,6 C 6,4 km/h (2 Bft) 98,17 %
19.11.2015 16:55 13,3 C 64 % 1015,7 hPa 0,0 l/m 1,1 km/h (1 Bft) SW 230 0 min 0,000 mm 0,0 UV-I 0 W/m 6,6 C 13,3 C 3,2 km/h (1 Bft) 100,00 %
19.11.2015 17:00 13,3 C 64 % 1015,7 hPa 0,0 l/m 2,7 km/h (1 Bft) S-SW 204 0 min 0,000 mm 0,0 UV-I 0 W/m 6,6 C 13,3 C 6,4 km/h (2 Bft) 100,00 %
19.11.2015 17:05 13,2 C 64 % 1015,8 hPa 0,0 l/m 1,8 km/h (1 Bft) SW 223 0 min 0,025 mm 0,0 UV-I 0 W/m 6,5 C 13,2 C 4,8 km/h (1 Bft) 99,19 %
19.11.2015 17:10 13,2 C 64 % 1015,6 hPa 0,0 l/m 2,0 km/h (1 Bft) SW 223 0 min 0,000 mm 0,0 UV-I 0 W/m 6,5 C 13,2 C 3,2 km/h (1 Bft) 99,08 %
19.11.2015 17:15 13,1 C 64 % 1015,6 hPa 0,0 l/m 2,3 km/h (1 Bft) S-SW 209 0 min 0,000 mm 0,0 UV-I 0 W/m 6,4 C 13,1 C 4,8 km/h (1 Bft) 100,00 %
19.11.2015 17:20 13,0 C 65 % 1015,6 hPa 0,0 l/m 1,1 km/h (1 Bft) S-SW 209 0 min 0,000 mm 0,0 UV-I 0 W/m 6,6 C 13,0 C 3,2 km/h (1 Bft) 98,21 %
19.11.2015 17:25 13,0 C 66 % 1015,6 hPa 0,0 l/m 1,1 km/h (1 Bft) S-SW 209 0 min 0,000 mm 0,0 UV-I 0 W/m 6,8 C 13,0 C 3,2 km/h (1 Bft) 100,00 %
19.11.2015 17:30 12,9 C 66 % 1015,6 hPa 0,0 l/m 1,8 km/h (1 Bft) SW 232 0 min 0,000 mm 0,0 UV-I 0 W/m 6,7 C 12,9 C 4,8 km/h (1 Bft) 99,21 %
19.11.2015 17:35 13,0 C 66 % 1015,6 hPa 0,0 l/m 4,0 km/h (1 Bft) W-SW 242 0 min 0,000 mm 0,0 UV-I 0 W/m 6,8 C 13,0 C 8,0 km/h (2 Bft) 100,00 %
19.11.2015 17:40 12,9 C 65 % 1015,7 hPa 0,0 l/m 2,7 km/h (1 Bft) SW 219 0 min 0,000 mm 0,0 UV-I 0 W/m 6,5 C 12,9 C 4,8 km/h (1 Bft) 97,30 %
19.11.2015 17:45 12,8 C 65 % 1015,6 hPa 0,0 l/m 1,9 km/h (1 Bft) SW 219 0 min 0,000 mm 0,0 UV-I 0 W/m 6,4 C 12,8 C 4,8 km/h (1 Bft) 100,00 %
19.11.2015 17:50 12,8 C 65 % 1015,6 hPa 0,0 l/m 1,4 km/h (1 Bft) W-SW 243 0 min 0,000 mm 0,0 UV-I 0 W/m 6,4 C 12,8 C 3,2 km/h (1 Bft) 100,00 %
19.11.2015 17:55 12,8 C 65 % 1015,6 hPa 0,0 l/m 1,9 km/h (1 Bft) W-SW 242 0 min 0,000 mm 0,0 UV-I 0 W/m 6,4 C 12,8 C 3,2 km/h (1 Bft) 100,00 %
19.11.2015 18:00 12,9 C 65 % 1015,8 hPa 0,0 l/m 1,9 km/h (1 Bft) W 279 0 min 0,026 mm 0,0 UV-I 0 W/m 6,5 C 12,9 C 4,8 km/h (1 Bft) 100,00 %
19.11.2015 18:05 12,9 C 65 % 1015,7 hPa 0,0 l/m 1,2 km/h (1 Bft) W 279 0 min 0,000 mm 0,0 UV-I 0 W/m 6,5 C 12,9 C 3,2 km/h (1 Bft) 98,06 %
19.11.2015 18:10 12,9 C 65 % 1015,7 hPa 0,0 l/m 1,5 km/h (1 Bft) W 279 0 min 0,000 mm 0,0 UV-I 0 W/m 6,5 C 12,9 C 3,2 km/h (1 Bft) 100,00 %
19.11.2015 18:15 12,9 C 65 % 1015,5 hPa 0,0 l/m 0,9 km/h (0 Bft) SW 223 0 min 0,000 mm 0,0 UV-I 0 W/m 6,5 C 12,9 C 3,2 km/h (1 Bft) 100,00 %
19.11.2015 18:20 12,9 C 66 % 1015,6 hPa 0,0 l/m 1,5 km/h (1 Bft) SW 223 0 min 0,000 mm 0,0 UV-I 0 W/m 6,7 C 12,9 C 3,2 km/h (1 Bft) 98,33 %
19.11.2015 18:25 12,8 C 67 % 1015,5 hPa 0,0 l/m 1,1 km/h (1 Bft) SW 223 0 min 0,000 mm 0,0 UV-I 0 W/m 6,8 C 12,8 C 3,2 km/h (1 Bft) 100,00 %
19.11.2015 18:30 12,9 C 66 % 1015,6 hPa 0,0 l/m 1,2 km/h (1 Bft) W 270 0 min 0,000 mm 0,0 UV-I 0 W/m 6,7 C 12,9 C 3,2 km/h (1 Bft) 99,11 %
19.11.2015 18:35 12,8 C 67 % 1015,8 hPa 0,0 l/m 0,8 km/h (0 Bft) W 270 0 min 0,000 mm 0,0 UV-I 0 W/m 6,8 C 12,8 C 4,8 km/h (1 Bft) 100,00 %
19.11.2015 18:40 12,7 C 66 % 1015,7 hPa 0,0 l/m 1,2 km/h (1 Bft) W 279 0 min 0,000 mm 0,0 UV-I 0 W/m 6,5 C 12,7 C 3,2 km/h (1 Bft) 99,15 %
19.11.2015 18:45 12,9 C 66 % 1015,4 hPa 0,0 l/m 1,2 km/h (1 Bft) W 278 0 min 0,000 mm 0,0 UV-I 0 W/m 6,7 C 12,9 C 3,2 km/h (1 Bft) 98,41 %
19.11.2015 18:50 12,9 C 66 % 1015,3 hPa 0,0 l/m 1,2 km/h (1 Bft) W 264 0 min 0,000 mm 0,0 UV-I 0 W/m 6,7 C 12,9 C 3,2 km/h (1 Bft) 100,00 %
19.11.2015 18:55 12,9 C 67 % 1015,4 hPa 0,0 l/m 1,8 km/h (1 Bft) SW 214 0 min 0,000 mm 0,0 UV-I 0 W/m 6,9 C 12,9 C 4,8 km/h (1 Bft) 100,00 %
19.11.2015 19:00 12,8 C 67 % 1015,4 hPa 0,0 l/m 2,4 km/h (1 Bft) SW 227 0 min 0,000 mm 0,0 UV-I 0 W/m 6,8 C 12,8 C 4,8 km/h (1 Bft) 100,00 %
19.11.2015 19:05 12,7 C 69 % 1015,3 hPa 0,0 l/m 0,7 km/h (0 Bft) SW 227 0 min 0,000 mm 0,0 UV-I 0 W/m 7,2 C 12,7 C 1,6 km/h (1 Bft) 100,00 %
19.11.2015 19:10 12,6 C 69 % 1015,3 hPa 0,0 l/m 1,2 km/h (1 Bft) W 261 0 min 0,000 mm 0,0 UV-I 0 W/m 7,1 C 12,6 C 3,2 km/h (1 Bft) 100,00 %
19.11.2015 19:15 12,5 C 69 % 1015,3 hPa 0,0 l/m 1,3 km/h (1 Bft) W 261 0 min 0,000 mm 0,0 UV-I 0 W/m 7,0 C 12,5 C 3,2 km/h (1 Bft) 99,19 %
19.11.2015 19:20 12,6 C 69 % 1015,2 hPa 0,0 l/m 1,9 km/h (1 Bft) S-SW 204 0 min 0,000 mm 0,0 UV-I 0 W/m 7,1 C 12,6 C 6,4 km/h (2 Bft) 100,00 %
19.11.2015 19:25 12,8 C 68 % 1015,1 hPa 0,0 l/m 3,0 km/h (1 Bft) SW 230 0 min 0,000 mm 0,0 UV-I 0 W/m 7,0 C 12,8 C 6,4 km/h (2 Bft) 98,00 %
19.11.2015 19:30 12,8 C 68 % 1015,2 hPa 0,0 l/m 2,8 km/h (1 Bft) S-SW 202 0 min 0,000 mm 0,0 UV-I 0 W/m 7,0 C 12,8 C 4,8 km/h (1 Bft) 99,19 %
19.11.2015 19:35 12,7 C 69 % 1015,0 hPa 0,0 l/m 3,5 km/h (1 Bft) SW 229 0 min 0,000 mm 0,0 UV-I 0 W/m 7,2 C 12,7 C 8,0 km/h (2 Bft) 99,15 %
19.11.2015 19:40 12,7 C 69 % 1014,9 hPa 0,0 l/m 4,0 km/h (1 Bft) S-SW 192 0 min 0,000 mm 0,0 UV-I 0 W/m 7,2 C 12,7 C 8,0 km/h (2 Bft) 99,19 %
19.11.2015 19:45 12,7 C 69 % 1014,8 hPa 0,0 l/m 3,5 km/h (1 Bft) SW 236 0 min 0,000 mm 0,0 UV-I 0 W/m 7,2 C 12,7 C 8,0 km/h (2 Bft) 100,00 %
19.11.2015 19:50 12,8 C 68 % 1014,8 hPa 0,0 l/m 4,5 km/h (1 Bft) W-SW 254 0 min 0,000 mm 0,0 UV-I 0 W/m 7,0 C 12,8 C 8,0 km/h (2 Bft) 99,19 %
19.11.2015 19:55 12,7 C 69 % 1014,8 hPa 0,0 l/m 2,4 km/h (1 Bft) W 259 0 min 0,000 mm 0,0 UV-I 0 W/m 7,2 C 12,7 C 6,4 km/h (2 Bft) 100,00 %
19.11.2015 20:00 12,7 C 69 % 1014,7 hPa 0,0 l/m 5,2 km/h (1 Bft) SW 216 0 min 0,025 mm 0,0 UV-I 0 W/m 7,2 C 12,7 C 11,3 km/h (2 Bft) 99,17 %
19.11.2015 20:05 12,8 C 69 % 1014,5 hPa 0,0 l/m 7,0 km/h (2 Bft) S-SW 209 0 min 0,000 mm 0,0 UV-I 0 W/m 7,3 C 12,4 C 9,7 km/h (2 Bft) 99,11 %
19.11.2015 20:10 12,8 C 71 % 1014,2 hPa 0,0 l/m 5,7 km/h (1 Bft) S-SW 198 0 min 0,000 mm 0,0 UV-I 0 W/m 7,7 C 12,8 C 9,7 km/h (2 Bft) 100,00 %
19.11.2015 20:15 12,7 C 70 % 1014,1 hPa 0,0 l/m 5,0 km/h (1 Bft) S-SW 207 0 min 0,000 mm 0,0 UV-I 0 W/m 7,4 C 12,7 C 9,7 km/h (2 Bft) 98,21 %
19.11.2015 20:20 12,7 C 71 % 1013,9 hPa 0,0 l/m 4,8 km/h (1 Bft) S-SW 198 0 min 0,000 mm 0,0 UV-I 0 W/m 7,6 C 12,7 C 11,3 km/h (2 Bft) 100,00 %
19.11.2015 20:25 12,8 C 69 % 1013,8 hPa 0,0 l/m 6,1 km/h (2 Bft) S-SW 211 0 min 0,000 mm 0,0 UV-I 0 W/m 7,3 C 12,8 C 16,1 km/h (3 Bft) 99,19 %
19.11.2015 20:30 13,0 C 69 % 1013,6 hPa 0,0 l/m 5,8 km/h (2 Bft) SW 229 0 min 0,000 mm 0,0 UV-I 0 W/m 7,4 C 13,0 C 11,3 km/h (2 Bft) 100,00 %
19.11.2015 20:35 13,2 C 68 % 1013,7 hPa 0,0 l/m 6,6 km/h (2 Bft) SW 221 0 min 0,000 mm 0,0 UV-I 0 W/m 7,4 C 13,1 C 14,5 km/h (3 Bft) 100,00 %
19.11.2015 20:40 13,2 C 68 % 1013,6 hPa 0,0 l/m 5,9 km/h (2 Bft) S-SW 207 0 min 0,000 mm 0,0 UV-I 0 W/m 7,4 C 13,2 C 14,5 km/h (3 Bft) 100,00 %
19.11.2015 20:45 13,3 C 68 % 1013,4 hPa 0,0 l/m 6,1 km/h (2 Bft) S 190 0 min 0,000 mm 0,0 UV-I 0 W/m 7,5 C 13,3 C 11,3 km/h (2 Bft) 100,00 %
19.11.2015 20:50 13,3 C 68 % 1013,3 hPa 0,0 l/m 6,6 km/h (2 Bft) SW 236 0 min 0,000 mm 0,0 UV-I 0 W/m 7,5 C 13,2 C 12,9 km/h (3 Bft) 99,10 %
19.11.2015 20:55 13,4 C 68 % 1013,3 hPa 0,0 l/m 7,0 km/h (2 Bft) SW 232 0 min 0,000 mm 0,0 UV-I 0 W/m 7,6 C 13,0 C 14,5 km/h (3 Bft) 100,00 %
19.11.2015 21:00 13,3 C 69 % 1013,3 hPa 0,0 l/m 4,8 km/h (1 Bft) SW 221 0 min 0,025 mm 0,0 UV-I 0 W/m 7,7 C 13,3 C 16,1 km/h (3 Bft) 99,12 %
19.11.2015 21:05 13,3 C 69 % 1013,3 hPa 0,0 l/m 8,5 km/h (2 Bft) SW 235 0 min 0,000 mm 0,0 UV-I 0 W/m 7,7 C 12,0 C 16,1 km/h (3 Bft) 99,13 %
19.11.2015 21:10 13,3 C 69 % 1013,0 hPa 0,0 l/m 6,7 km/h (2 Bft) S-SW 208 0 min 0,000 mm 0,0 UV-I 0 W/m 7,7 C 13,1 C 12,9 km/h (3 Bft) 100,00 %
19.11.2015 21:15 13,3 C 68 % 1012,9 hPa 0,0 l/m 9,2 km/h (2 Bft) S-SW 208 0 min 0,000 mm 0,0 UV-I 0 W/m 7,5 C 11,7 C 17,7 km/h (3 Bft) 100,00 %
19.11.2015 21:20 13,3 C 68 % 1012,7 hPa 0,0 l/m 5,8 km/h (2 Bft) SW 236 0 min 0,000 mm 0,0 UV-I 0 W/m 7,5 C 13,3 C 12,9 km/h (3 Bft) 99,15 %
19.11.2015 21:25 13,3 C 69 % 1012,7 hPa 0,0 l/m 7,0 km/h (2 Bft) W-SW 251 0 min 0,000 mm 0,0 UV-I 0 W/m 7,7 C 12,9 C 12,9 km/h (3 Bft) 100,00 %
19.11.2015 21:30 13,2 C 69 % 1012,6 hPa 0,0 l/m 3,4 km/h (1 Bft) SW 229 0 min 0,000 mm 0,0 UV-I 0 W/m 7,6 C 13,2 C 9,7 km/h (2 Bft) 99,12 %
19.11.2015 21:35 13,1 C 70 % 1012,6 hPa 0,0 l/m 4,1 km/h (1 Bft) W-SW 257 0 min 0,000 mm 0,0 UV-I 0 W/m 7,8 C 13,1 C 8,0 km/h (2 Bft) 98,26 %
19.11.2015 21:40 13,2 C 70 % 1012,7 hPa 0,0 l/m 5,3 km/h (1 Bft) W 269 0 min 0,000 mm 0,0 UV-I 0 W/m 7,9 C 13,2 C 12,9 km/h (3 Bft) 100,00 %
19.11.2015 21:45 13,1 C 70 % 1012,7 hPa 0,0 l/m 4,6 km/h (1 Bft) W 268 0 min 0,000 mm 0,0 UV-I 0 W/m 7,8 C 13,1 C 9,7 km/h (2 Bft) 99,11 %
19.11.2015 21:50 13,2 C 71 % 1012,7 hPa 0,0 l/m 6,6 km/h (2 Bft) W 263 0 min 0,000 mm 0,0 UV-I 0 W/m 8,1 C 13,1 C 14,5 km/h (3 Bft) 100,00 %
19.11.2015 21:55 13,2 C 71 % 1012,9 hPa 0,0 l/m 8,7 km/h (2 Bft) W-NW 284 0 min 0,000 mm 0,0 UV-I 0 W/m 8,1 C 11,8 C 19,3 km/h (3 Bft) 100,00 %
19.11.2015 22:00 13,2 C 69 % 1012,7 hPa 0,0 l/m 10,8 km/h (2 Bft) W-NW 286 0 min 0,000 mm 0,0 UV-I 0 W/m 7,6 C 10,7 C 20,9 km/h (4 Bft) 99,19 %
19.11.2015 22:05 13,6 C 67 % 1012,6 hPa 0,0 l/m 10,6 km/h (2 Bft) SW 229 0 min 0,026 mm 0,0 UV-I 0 W/m 7,6 C 11,3 C 19,3 km/h (3 Bft) 98,26 %
19.11.2015 22:10 13,9 C 65 % 1012,4 hPa 0,0 l/m 11,9 km/h (2 Bft) W 270 0 min 0,000 mm 0,0 UV-I 0 W/m 7,4 C 11,0 C 22,5 km/h (4 Bft) 100,00 %
19.11.2015 22:15 14,0 C 66 % 1012,1 hPa 0,0 l/m 11,5 km/h (2 Bft) W 278 0 min 0,000 mm 0,0 UV-I 0 W/m 7,7 C 11,3 C 17,7 km/h (3 Bft) 99,17 %
19.11.2015 22:20 14,1 C 65 % 1011,9 hPa 0,0 l/m 10,6 km/h (2 Bft) W-SW 238 0 min 0,000 mm 0,0 UV-I 0 W/m 7,6 C 11,8 C 29,0 km/h (5 Bft) 100,00 %
19.11.2015 22:25 14,0 C 65 % 1011,7 hPa 0,0 l/m 11,1 km/h (2 Bft) S-SW 202 0 min 0,000 mm 0,0 UV-I 0 W/m 7,5 C 11,5 C 20,9 km/h (4 Bft) 98,41 %
19.11.2015 22:30 13,9 C 66 % 1011,5 hPa 0,0 l/m 13,6 km/h (3 Bft) W 274 0 min 0,000 mm 0,0 UV-I 0 W/m 7,7 C 10,4 C 27,4 km/h (4 Bft) 100,00 %
19.11.2015 22:35 13,8 C 66 % 1011,5 hPa 0,0 l/m 10,7 km/h (2 Bft) SW 216 0 min 0,000 mm 0,0 UV-I 0 W/m 7,6 C 11,5 C 19,3 km/h (3 Bft) 100,00 %
19.11.2015 22:40 13,8 C 64 % 1011,4 hPa 0,0 l/m 14,5 km/h (3 Bft) SW 217 0 min 0,000 mm 0,0 UV-I 0 W/m 7,1 C 9,9 C 27,4 km/h (4 Bft) 99,19 %
19.11.2015 22:45 13,9 C 64 % 1011,4 hPa 0,0 l/m 11,0 km/h (2 Bft) S-SW 198 0 min 0,000 mm 0,0 UV-I 0 W/m 7,2 C 11,4 C 25,7 km/h (4 Bft) 100,00 %
19.11.2015 22:50 14,1 C 63 % 1011,5 hPa 0,0 l/m 12,9 km/h (3 Bft) SW 234 0 min 0,000 mm 0,0 UV-I 0 W/m 7,2 C 10,9 C 19,3 km/h (3 Bft) 99,10 %
19.11.2015 22:55 14,3 C 62 % 1011,3 hPa 0,0 l/m 12,0 km/h (2 Bft) W 262 0 min 0,000 mm 0,0 UV-I 0 W/m 7,1 C 11,5 C 25,7 km/h (4 Bft) 100,00 %
19.11.2015 23:00 14,6 C 61 % 1011,3 hPa 0,0 l/m 11,8 km/h (2 Bft) S-SW 199 0 min 0,051 mm 0,0 UV-I 0 W/m 7,2 C 11,9 C 20,9 km/h (4 Bft) 100,00 %
19.11.2015 23:05 14,6 C 61 % 1011,2 hPa 0,0 l/m 10,8 km/h (2 Bft) W-SW 258 0 min 0,000 mm 0,0 UV-I 0 W/m 7,2 C 12,3 C 19,3 km/h (3 Bft) 100,00 %
19.11.2015 23:10 14,8 C 59 % 1011,1 hPa 0,0 l/m 16,6 km/h (3 Bft) SW 229 0 min 0,000 mm 0,0 UV-I 0 W/m 6,9 C 10,4 C 33,8 km/h (5 Bft) 100,00 %
19.11.2015 23:15 15,1 C 59 % 1011,2 hPa 0,0 l/m 19,4 km/h (3 Bft) W-SW 248 0 min 0,000 mm 0,0 UV-I 0 W/m 7,1 C 10,0 C 46,7 km/h (6 Bft) 100,00 %
19.11.2015 23:20 15,3 C 59 % 1011,1 hPa 0,0 l/m 18,4 km/h (3 Bft) W-SW 238 0 min 0,000 mm 0,0 UV-I 0 W/m 7,3 C 10,6 C 38,6 km/h (5 Bft) 100,00 %
19.11.2015 23:25 15,3 C 59 % 1010,9 hPa 0,0 l/m 15,5 km/h (3 Bft) W-SW 258 0 min 0,000 mm 0,0 UV-I 0 W/m 7,3 C 11,4 C 27,4 km/h (4 Bft) 99,21 %
19.11.2015 23:30 15,3 C 59 % 1010,9 hPa 0,0 l/m 15,2 km/h (3 Bft) SW 230 0 min 0,000 mm 0,0 UV-I 0 W/m 7,3 C 11,5 C 27,4 km/h (4 Bft) 99,12 %
19.11.2015 23:35 15,2 C 60 % 1010,9 hPa 0,0 l/m 14,7 km/h (3 Bft) SW 230 0 min 0,000 mm 0,0 UV-I 0 W/m 7,5 C 11,5 C 30,6 km/h (5 Bft) 99,11 %
19.11.2015 23:40 15,2 C 60 % 1010,7 hPa 0,0 l/m 13,7 km/h (3 Bft) W 273 0 min 0,000 mm 0,0 UV-I 0 W/m 7,5 C 11,9 C 24,1 km/h (4 Bft) 100,00 %
19.11.2015 23:45 15,2 C 60 % 1010,8 hPa 0,0 l/m 13,4 km/h (3 Bft) W-SW 246 0 min 0,000 mm 0,0 UV-I 0 W/m 7,5 C 12,0 C 24,1 km/h (4 Bft) 98,37 %
19.11.2015 23:50 15,1 C 60 % 1010,6 hPa 0,0 l/m 13,3 km/h (3 Bft) W-SW 238 0 min 0,000 mm 0,0 UV-I 0 W/m 7,4 C 11,9 C 24,1 km/h (4 Bft) 100,00 %
19.11.2015 23:55 15,1 C 60 % 1010,5 hPa 0,0 l/m 13,0 km/h (3 Bft) W-SW 248 0 min 0,000 mm 0,0 UV-I 0 W/m 7,4 C 12,0 C 22,5 km/h (4 Bft) 98,97 %
_ Min-Zeit 00:30 12:45 23:55 - 16:35 - - - - - - 03:50 01:55 19:05 03:10
Minimum _ 9,8 C 52 % 1010,5 hPa - 0,5 km/h (0 Bft) - - - - - - 3,0 C 7,0 C 1,6 km/h (1 Bft) 96,33 %
_ Max-Zeit 12:05 00:30 02:45 00:00 23:15 - - 08:10 12:05 11:10 11:15 15:10 15:30 23:15 00:00
Maximum _ 16,3 C 72 % 1018,8 hPa 0,0 l/m 19,4 km/h
W-SW (3 Bft)
- - 5 min 0,254 mm 1,2 UV-I 412 W/m 8,5 C 15,9 C 46,7 km/h
SW (6 Bft)
100,00 %
Durchschnitt _ 13,3 C 62 % 1016,4 hPa #0,0 l/m 8,6 km/h (2 Bft) SW - #5:10 h #1,753 mm 0,8 UV-I 157 W/m 6,2 C 11,7 C 16,8 km/h (3 Bft) 99,30 %